Date String (YYYY-MM-DD hh:mm:ss) UTC,Instrument flags,absolute air pressure of the measurement (hPa),sample flow rate (lpm),inlet stack bypass flow (lpm),air temperature of the measurement (°C),ambient temperature measured by the external sensor (°C),aerosol sample conditioner tube jacket temperature (°C),OPC LED temperature (°C),internal box temperature (°C),relative humidity of the measurement (%),span deviation,mass concentration of particles derived from Lorenz-Mie calculation of OPC scattering (μg/m³),mass concentration of particles derived from Lorenz-Mie calculation of OPC scattering (μg/m³),mass concentration of particles derived from Lorenz-Mie calculation of OPC scattering (μg/m³)
DateTimeUTC,F1_M11,P_M11,Q1_M11,Q2_M11,T1_M11,T2_M11,T3_M11,T4_M11,T5_M11,U1_M11,ZSPAN_M11,X0_M11,X2_M11,X1_M11
2024-04-07 01:00:00,SystemResetWarning,0809.9,5.00,000.00,018.8,018.3,000.0,027.1,020.2,009.7,0000.0,0038.08,0005.78,0001.22
2024-04-07 01:01:00,SystemResetWarning,0809.7,5.00,000.00,018.7,018.0,000.0,027.1,020.0,009.8,0000.0,0037.48,0005.71,0001.20
2024-04-07 01:02:00,SystemResetWarning,0809.9,5.01,000.00,018.6,017.8,000.0,027.1,020.0,009.9,0000.0,0035.94,0005.67,0001.19
2024-04-07 01:03:00,SystemResetWarning,0810.1,5.00,000.00,018.6,017.6,000.0,027.1,020.0,010.0,0000.0,0032.37,0005.26,0001.09
2024-04-07 01:04:00,SystemResetWarning,0810.0,5.00,000.00,018.5,017.4,000.0,027.1,020.0,010.2,0000.0,0029.59,0004.79,0000.98
2024-04-07 01:05:00,SystemResetWarning,0809.8,4.98,000.00,018.5,017.3,000.0,027.1,020.0,010.1,0000.0,0028.70,0004.72,0000.97
2024-04-07 01:06:00,SystemResetWarning,0810.0,5.00,000.00,018.5,017.2,000.0,027.1,020.0,010.0,0000.0,0026.87,0004.59,0000.93
2024-04-07 01:07:00,SystemResetWarning,0809.8,4.99,000.00,018.5,017.1,000.0,027.1,020.0,010.2,0000.0,0027.15,0004.58,0000.92
2024-04-07 01:08:00,SystemResetWarning,0810.1,5.00,000.00,018.5,017.6,000.0,027.2,020.2,010.2,0000.0,0026.09,0004.22,0000.86
2024-04-07 01:09:00,SystemResetWarning,0810.4,5.02,000.00,018.7,018.6,000.0,027.2,020.8,010.1,0000.0,0024.55,0003.77,0000.76
2024-04-07 01:10:00,SystemResetWarning,0810.3,4.97,000.00,018.9,019.3,000.0,027.3,021.2,010.1,0000.0,0025.07,0003.62,0000.73
2024-04-07 01:11:00,SystemResetWarning,0810.2,5.01,000.00,019.0,019.2,000.0,027.2,021.0,010.0,0000.0,0024.30,0003.55,0000.72
2024-04-07 01:12:00,SystemResetWarning,0810.2,5.01,000.00,019.0,018.9,000.0,027.2,020.7,009.9,0000.0,0025.04,0003.71,0000.75
2024-04-07 01:13:00,SystemResetWarning,0810.0,5.00,000.00,018.9,018.6,000.0,027.2,020.5,009.9,0000.0,0026.02,0003.82,0000.76
2024-04-07 01:14:00,SystemResetWarning,0809.6,4.98,000.00,018.8,018.3,000.0,027.1,020.2,009.8,0000.0,0022.92,0003.48,0000.71
2024-04-07 01:15:00,SystemResetWarning,0809.4,5.01,000.00,018.7,018.0,000.0,027.1,020.0,009.6,0000.0,0023.57,0003.61,0000.73
2024-04-07 01:16:00,SystemResetWarning,0810.1,5.01,000.00,018.6,017.7,000.0,027.1,020.0,009.6,0000.0,0027.34,0003.92,0000.78
2024-04-07 01:17:00,SystemResetWarning,0810.1,4.98,000.00,018.6,017.6,000.0,027.1,020.0,009.6,0000.0,0027.05,0003.99,0000.80
2024-04-07 01:18:00,SystemResetWarning,0810.1,5.00,000.00,018.5,017.4,000.0,027.1,020.0,009.5,0000.0,0028.41,0004.06,0000.82
2024-04-07 01:19:00,SystemResetWarning,0809.9,5.01,000.00,018.5,017.3,000.0,027.1,020.0,009.4,0000.0,0033.60,0004.52,0000.93
2024-04-07 01:20:00,SystemResetWarning,0809.9,4.99,000.00,018.5,017.2,000.0,027.1,020.0,009.5,0000.0,0038.82,0005.27,0001.07
2024-04-07 01:21:00,SystemResetWarning,0809.9,5.00,000.00,018.5,017.1,000.0,027.1,020.0,009.5,0000.0,0040.56,0005.43,0001.10
2024-04-07 01:22:00,SystemResetWarning,0810.0,5.01,000.00,018.5,017.7,000.0,027.2,020.3,009.5,0000.0,0039.70,0005.40,0001.09
2024-04-07 01:23:00,SystemResetWarning,0810.5,4.99,000.00,018.7,018.7,000.0,027.2,020.8,009.3,0000.0,0040.63,0005.55,0001.11
2024-04-07 01:24:00,SystemResetWarning,0810.4,5.00,000.00,019.0,019.3,000.0,027.3,021.2,009.2,0000.0,0041.77,0005.66,0001.13
2024-04-07 01:25:00,SystemResetWarning,0810.1,4.99,000.00,019.0,019.1,000.0,027.2,021.0,009.2,0000.0,0042.78,0005.87,0001.15
2024-04-07 01:26:00,SystemResetWarning,0810.5,5.00,000.00,019.0,018.8,000.0,027.2,020.7,009.3,0000.0,0043.03,0005.96,0001.15
2024-04-07 01:27:00,SystemResetWarning,0810.2,5.00,000.00,018.9,018.6,000.0,027.2,020.4,009.4,0000.0,0044.25,0006.07,0001.17
2024-04-07 01:28:00,SystemResetWarning,0810.0,5.02,000.00,018.8,018.3,000.0,027.1,020.2,009.3,0000.0,0045.76,0006.13,0001.18
2024-04-07 01:29:00,SystemResetWarning,0809.8,5.01,000.00,018.7,018.0,000.0,027.1,020.0,009.3,0000.0,0044.26,0006.08,0001.15
2024-04-07 01:30:00,SystemResetWarning,0810.2,5.00,000.00,018.6,017.7,000.0,027.1,020.0,009.6,0000.0,0041.03,0006.01,0001.12
2024-04-07 01:31:00,SystemResetWarning,0810.1,4.98,000.00,018.6,017.5,000.0,027.1,020.0,009.8,0000.0,0037.45,0005.99,0001.14
2024-04-07 01:32:00,SystemResetWarning,0810.0,5.00,000.00,018.5,017.4,000.0,027.1,020.0,009.7,0000.0,0037.70,0006.11,0001.16
2024-04-07 01:33:00,SystemResetWarning,0810.4,5.00,000.00,018.5,017.2,000.0,027.2,020.0,009.6,0000.0,0037.89,0006.17,0001.18
2024-04-07 01:34:00,SystemResetWarning,0810.3,5.01,000.00,018.5,017.2,000.0,027.2,020.0,009.7,0000.0,0038.07,0006.16,0001.18
2024-04-07 01:35:00,SystemResetWarning,0810.4,5.01,000.00,018.6,018.0,000.0,027.2,020.4,009.5,0000.0,0034.64,0005.82,0001.12
2024-04-07 01:36:00,SystemResetWarning,0810.1,4.99,000.00,018.8,018.9,000.0,027.3,021.0,009.5,0000.0,0033.10,0005.55,0001.09
2024-04-07 01:37:00,SystemResetWarning,0810.0,4.99,000.00,019.0,019.3,000.0,027.3,021.2,009.4,0000.0,0032.21,0005.31,0001.07
2024-04-07 01:38:00,SystemResetWarning,0810.0,4.99,000.00,019.0,019.0,000.0,027.2,020.9,009.3,0000.0,0027.63,0005.02,0001.01
2024-04-07 01:39:00,SystemResetWarning,0810.1,5.00,000.00,019.0,018.8,000.0,027.2,020.6,009.2,0000.0,0027.41,0005.10,0001.03
2024-04-07 01:40:00,SystemResetWarning,0809.9,5.00,000.00,018.9,018.5,000.0,027.2,020.4,009.3,0000.0,0030.66,0005.36,0001.09
2024-04-07 01:41:00,SystemResetWarning,0809.9,5.00,000.00,018.8,018.2,000.0,027.1,020.2,009.6,0000.0,0035.82,0005.64,0001.14
2024-04-07 01:42:00,SystemResetWarning,0809.8,5.00,000.00,018.7,017.9,000.0,027.1,020.0,009.7,0000.0,0036.54,0005.16,0001.05
2024-04-07 01:43:00,SystemResetWarning,0809.8,5.01,000.00,018.6,017.7,000.0,027.1,020.0,009.9,0000.0,0036.95,0005.03,0000.99
2024-04-07 01:44:00,SystemResetWarning,0810.0,5.00,000.00,018.6,017.5,000.0,027.1,020.0,010.0,0000.0,0042.56,0005.77,0001.17
2024-04-07 01:45:00,SystemResetWarning,0810.4,4.99,000.00,018.5,017.4,000.0,027.1,020.0,010.0,0000.0,0045.33,0006.16,0001.26
2024-04-07 01:46:00,SystemResetWarning,0810.6,5.01,000.00,018.5,017.2,000.0,027.2,020.0,009.9,0000.0,0045.58,0006.40,0001.30
2024-04-07 01:47:00,SystemResetWarning,0810.4,5.01,000.00,018.6,017.7,000.0,027.2,020.3,009.9,0000.0,0046.65,0006.44,0001.31
2024-04-07 01:48:00,SystemResetWarning,0810.0,5.00,000.00,018.8,018.7,000.0,027.3,020.8,009.9,0000.0,0047.85,0006.56,0001.33
2024-04-07 01:49:00,SystemResetWarning,0810.3,5.00,000.00,019.0,019.3,000.0,027.3,021.2,009.6,0000.0,0051.36,0006.94,0001.40
2024-04-07 01:50:00,SystemResetWarning,0810.0,4.99,000.00,019.0,019.1,000.0,027.2,021.0,009.4,0000.0,0051.53,0006.75,0001.38
2024-04-07 01:51:00,SystemResetWarning,0809.8,4.99,000.00,019.0,018.9,000.0,027.2,020.8,009.4,0000.0,0052.24,0006.71,0001.38
2024-04-07 01:52:00,SystemResetWarning,0809.9,5.02,000.00,018.9,018.6,000.0,027.2,020.5,009.4,0000.0,0049.37,0006.46,0001.34
2024-04-07 01:53:00,SystemResetWarning,0809.5,4.99,000.00,018.8,018.3,000.0,027.2,020.3,009.3,0000.0,0050.64,0006.84,0001.39
2024-04-07 01:54:00,SystemResetWarning,0809.5,4.99,000.00,018.8,018.0,000.0,027.2,020.0,008.9,0000.0,0059.32,0007.41,0001.50
2024-04-07 01:55:00,SystemResetWarning,0809.8,5.01,000.00,018.7,017.8,000.0,027.2,020.0,008.9,0000.0,0073.76,0008.54,0001.67
2024-04-07 01:56:00,SystemResetWarning,0809.7,5.00,000.00,018.6,017.6,000.0,027.2,020.0,009.0,0000.0,0080.35,0008.90,0001.72
2024-04-07 01:57:00,SystemResetWarning,0809.4,4.99,000.00,018.6,017.4,000.0,027.2,020.0,008.9,0000.0,0090.08,0010.02,0001.95
2024-04-07 01:58:00,SystemResetWarning,0809.3,5.02,000.00,018.6,017.6,000.0,027.2,020.2,008.9,0000.0,0096.62,0010.96,0002.13
2024-04-07 01:59:00,SystemResetWarning,0809.9,5.00,000.00,018.8,018.5,000.0,027.3,020.7,009.0,0000.0,0110.12,0012.54,0002.48
